Location: Fort Wayne
(41.1310°N, 85.1290°W)
Time: 09:07:42
(UTC-04:00)

Daily predictions for brighter satellites

Satellite Brightness Start Highest point End
(mag) Time Altitude Azimuth Time Altitude Azimuth Time Altitude Azimuth
METEOR-M 4.2 20:32:27 10° SSE 20:37:47 84° ENE 20:43:11 10° NNW
FREGAT/IRIS 3.9 20:39:03 10° S 20:42:05 46° W 20:45:08 10° NNW
Cosmos 1697 Rocket 3.0 20:40:59 10° S 20:46:16 43° ESE 20:51:34 10° NE
Tiangong 1 1.0 20:43:20 10° WNW 20:46:28 82° NNE 20:49:33 10° E
Resurs 1-3 3.6 20:43:23 10° SSE 20:47:46 84° ENE 20:52:11 10° NNW
Cosmos 2123 Rocket 4.0 20:42:42 10° N 20:48:55 80° E 20:55:06 10° S
Cosmos 1743 4.4 20:47:14 10° SE 20:49:36 16° E 20:51:59 10° NE
HJ-1C 4.3 20:50:42 10° S 20:53:54 50° W 20:57:08 10° NNW
Cosmos 1898 Rocket 3.8 20:50:20 10° N 20:55:31 52° ENE 21:00:37 10° SE
SL-16 R/B 3.9 21:00:04 11° ESE 21:00:50 11° E 21:02:24 10° E
Cosmos 468 Rocket 4.0 20:59:52 10° S 21:04:52 57° ESE 21:09:54 10° NNE
BREEZE-M DEB (TANK) 4.1 21:03:24 10° SW 21:07:15 83° SE 21:20:59 10° ENE
Cosmos 841 Rocket 4.4 21:05:05 10° SSE 21:09:22 26° E 21:13:38 10° NE
DELTA 2 R/B (1) 4.3 21:04:39 10° W 21:09:56 44° SSW 21:14:35 13° SE
Cosmos 1980 Rocket 2.6 21:05:28 10° S 21:10:44 41° ESE 21:16:03 10° NE
RESURS DK-1 2.5 21:10:46 10° NNW 21:14:52 58° ENE 21:18:10 15° SE
Resurs 01 Rocket 3.3 21:13:01 10° SSW 21:17:04 35° W 21:21:10 10° NNW
H-2A R/B 2.8 21:14:41 10° SSE 21:18:35 89° NE 21:22:33 10° NNW
Cosmos 1814 Rocket 4.0 21:13:30 10° S 21:18:46 65° ESE 21:24:01 10° NNE
FENGYUN 3A 3.7 21:15:20 10° S 21:20:40 81° WSW 21:26:04 10° NNW
Cosmos 1656 4.0 21:15:45 10° SSW 21:21:21 72° WNW 21:26:54 10° NNE
Cosmos 1153 Rocket 4.4 21:15:20 10° S 21:21:31 84° E 21:27:41 10° N
CZ-4B DEB 4.2 21:20:35 10° S 21:23:42 40° W 21:26:50 10° NNW
Cosmos 1726 Rocket 4.5 21:24:43 19° SE 21:26:43 27° E 21:30:27 10° NNE
Cosmos 1666 4.1 21:29:44 20° E 21:29:44 20° E 21:32:10 10° NE
Cosmos 2263 Rocket 3.9 21:31:03 10° N 21:34:28 16° NE 21:36:35 13° ENE
Iridium 4 Rocket 3.4 21:32:53 10° N 21:37:47 74° W 21:42:14 10° S
Lacrosse 5 2.1 21:33:34 10° NW 21:38:36 66° SW 21:41:56 21° SSE
Cosmos 1802 Rocket 4.1 21:33:18 10° S 21:39:33 59° E 21:45:51 10° NNE
Cosmos 1500 3.6 21:36:48 10° SSW 21:40:30 62° W 21:44:15 10° N
Cosmos 1825 Rocket 3.6 21:37:26 10° N 21:41:49 59° E 21:44:13 25° SSE
Cosmos 2227 Rocket 4.3 21:37:21 10° NW 21:41:54 25° WSW 21:46:25 10° SSW
Cosmos 1975 4.5 21:40:25 10° SW 21:44:13 37° WNW 21:48:03 10° N
Cosmos 2016 Rocket 4.1 21:38:25 10° SSE 21:44:19 52° E 21:50:20 10° NNE
Cosmos 2322 Rocket 2.9 21:43:34 24° SE 21:45:36 30° ESE 21:50:27 10° NE
Cosmos 1340 2.7 21:42:32 10° N 21:46:18 58° E 21:47:33 37° SE
SJ-11-01 4.2 21:43:52 20° SSE 21:47:03 75° ENE 21:51:44 10° N
Lacrosse 5 rocket 4.0 21:46:33 10° WSW 21:47:17 10° WSW 21:48:01 10° SW
SPOT 5 3.7 21:47:47 29° E 21:49:05 33° ENE 21:53:19 10° N
Envisat 3.1 21:49:39 28° SE 21:52:13 59° ENE 21:57:13 10° N
Cosmos 1937 Rocket 3.8 21:48:42 10° NNW 21:53:57 67° WSW 21:58:05 17° S
Cosmos 1953 Rocket 3.6 21:49:42 10° N 21:54:08 59° E 21:55:42 37° SE
Cosmos 2228 4.2 21:55:49 26° ENE 21:55:49 26° ENE 21:58:36 10° NNE
H-2A R/B 2.4 21:55:01 38° E 21:55:35 40° ENE 21:59:30 10° N
Cosmos 2173 Rocket 4.0 21:49:43 10° S 21:56:06 89° E 22:02:27 10° N
USA 186 3.8 21:54:00 10° SSW 21:56:28 24° W 21:58:50 10° NW
Cosmos 2297 Rocket 4.1 21:51:58 10° NW 21:56:37 27° WSW 22:01:16 10° SSW
Meteor 2-9 Rocket 4.3 21:57:29 29° SSE 21:59:52 47° E 22:05:01 10° NNE
Cosmos 990 Rocket 4.1 21:56:12 10° NNW 22:01:28 78° WSW 22:04:27 26° S
CZ-4 DEB 3.2 22:03:21 44° SSW 22:04:03 57° W 22:07:10 10° NNW
ALOS 4.3 22:00:17 10° SSW 22:04:10 26° W 22:08:06 10° NW
Cosmos 2360 4.1 21:59:27 10° SSW 22:05:10 83° ESE 22:10:56 10° NNE
Cosmos 967 Rocket 4.4 21:58:50 10° NNW 22:05:12 84° WSW 22:08:26 31° SSE
Cosmos 2227 4.2 22:04:03 10° NNW 22:09:49 85° WSW 22:12:25 34° SSE
ERS-1 Rocket 3.1 22:08:47 24° S 22:11:47 70° WSW 22:16:48 10° NNW
Meteor 1-21 4.3 22:06:05 10° N 22:11:55 83° W 22:15:23 26° S
OAO 2 Rocket 4.2 22:07:30 10° WSW 22:11:59 33° SSW 22:12:34 32° S
Cosmos 1758 Rocket 3.4 22:08:02 10° N 22:12:23 81° E 22:13:13 57° SSE
Cosmos 1864 Rocket 4.5 22:10:22 32° SSE 22:13:05 58° E 22:19:05 10° NNE
Cosmos 2100 Rocket 4.5 22:08:37 10° SSW 22:14:47 60° W 22:20:57 10° N
BREEZE-M DEB (TANK) 2.1 22:14:56 10° NW 22:17:21 71° NNE 22:17:23 71° NE
Cosmos 405 Rocket 4.5 22:14:12 10° NNE 22:15:53 20° NE 22:15:53 20° NE
Tiangong 1 3.2 22:20:04 10° W 22:21:38 21° WSW 22:21:38 21° WSW
Cosmos 1939 Rocket 3.5 22:23:17 38° SSW 22:24:31 54° W 22:28:37 10° NNW
H-2A R/B 3.6 22:25:29 20° NE 22:25:29 20° NE 22:28:23 10° NNE
Cosmos 836 Rocket 4.4 22:19:40 10° SSW 22:24:58 90° W 22:30:18 10° NNE
Cosmos 1743 4.4 22:21:35 10° SW 22:25:09 33° WNW 22:28:44 10° N
Cosmos 1763 Rocket 4.1 22:20:38 10° SW 22:25:36 54° WNW 22:30:35 10° N
deb Chang Zheng 4 3.5 22:21:37 10° NNE 22:26:06 87° ESE 22:26:47 64° S
Tsikada Rocket 3.9 22:21:59 10° N 22:28:26 74° E 22:30:23 47° SSE
ARGOS 3.3 22:39:04 55° ENE 22:39:05 55° ENE 22:44:20 10° N
USA 215 4.4 22:37:02 23° ENE 22:40:03 34° NNE 22:45:46 10° NW
Cosmos 2058 Rocket 3.6 22:40:58 43° SW 22:42:08 57° W 22:46:36 10° N
Cosmos 1816 Rocket 4.4 22:36:24 10° N 22:42:48 76° E 22:43:53 61° SE
Cosmos 1125 Rocket 3.4 22:38:38 10° NNW 22:43:52 80° WSW 22:44:16 74° SSW
SL-16 R/B 2.1 22:41:43 38° SSW 22:44:01 88° ESE 22:49:44 10° NNE
SPOT 1/Viking Rocket 3.6 22:44:10 65° ENE 22:44:10 65° ENE 22:49:12 10° N
NOAA 11 4.2 22:44:17 63° ENE 22:44:19 63° ENE 22:49:43 10° N
Cosmos 1725 Rocket 4.0 22:42:59 30° SSW 22:46:12 77° W 22:52:29 10° N
MetOp-B 4.1 22:46:30 68° SSW 22:47:10 80° WSW 22:52:33 10° NNW
Cosmos 2098 Rocket 4.3 22:43:33 15° SSW 22:49:11 63° W 22:54:38 10° N
ASTEX 1 3.8 22:45:47 10° N 22:50:43 60° W 22:51:52 47° SW
Cosmos 1980 Rocket 4.0 22:49:54 10° WSW 22:54:50 30° NW 22:59:49 10° N
Cosmos 2360 Rocket 3.9 22:58:32 20° NE 22:58:32 20° NE 23:00:22 10° NE
Cosmos 540 Rocket 3.5 22:55:48 70° N 22:55:48 70° N 23:00:22 10° NNE
Cosmos 2233 Rocket 3.9 23:06:52 75° SSW 23:07:24 84° W 23:13:41 10° N
Cosmos 372 Rocket 4.4 23:09:23 10° NNW 23:13:41 58° NW 23:13:41 58° NW
Cosmos 2263 Rocket 2.4 23:13:31 10° NNW 23:18:16 65° NW 23:18:16 65° NW
Cosmos 2322 Rocket 3.4 23:25:05 14° WSW 23:29:30 38° WNW 23:34:44 10° N
Terra 3.5 23:42:37 31° NNW 23:42:37 31° NNW 23:45:04 10° NNW
Meteor 2-5 Rocket 4.5 23:40:14 10° NNW 23:45:04 50° WNW 23:45:04 50° WNW
